CW1428 Weather Reports


time (UTC)temp
C
wind
direction
speed
KPH
gust
KPH
rain 1hr
cm
rain 24hr
cm
rain mn
cm
humidity
%
barometer
mb
20260906231039 25 190 1.6 8.0 0.00 0.00 0.00 33 1023.7
20260906230539 25 190 0.0 8.0 0.00 0.00 0.00 35 1023.8
20260906230054 25 190 1.6 8.0 0.00 0.00 0.00 33 1023.8
20260906225538 25 0 0.0 11.3 0.00 0.00 0.00 34 1023.8
20260906225036 25 190 3.2 11.3 0.00 0.00 0.00 32 1023.8
20260906224551 25 190 1.6 4.8 0.00 0.00 0.00 35 1023.8
20260906224039 25 190 0.0 8.0 0.00 0.00 0.00 33 1023.8
20260906223541 25 190 1.6 8.0 0.00 0.00 0.00 33 1023.9
20260906223102 25 190 3.2 8.0 0.00 0.00 0.00 32 1024.0
20260906222536 25 190 1.6 11.3 0.00 0.00 0.00 32 1024.0
20260906222038 25 0 3.2 12.9 0.00 0.00 0.00 33 1023.9
20260906221555 25 190 1.6 14.5 0.00 0.00 0.00 31 1024.0
20260906221042 26 190 8.0 16.1 0.00 0.00 0.00 31 1023.9
20260906220542 26 190 4.8 16.1 0.00 0.00 0.00 31 1024.0
20260906220058 26 190 6.4 14.5 0.00 0.00 0.00 31 1023.9
20260906215536 26 190 3.2 9.7 0.00 0.00 0.00 30 1024.0
20260906215040 26 190 3.2 11.3 0.00 0.00 0.00 30 1024.0
20260906214608 26 190 4.8 11.3 0.00 0.00 0.00 29 1024.1
20260906214035 27 190 4.8 11.3 0.00 0.00 0.00 29 1024.0
20260906213536 27 190 4.8 12.9 0.00 0.00 0.00 29 1024.0
20260906213055 28 190 3.2 12.9 0.00 0.00 0.00 29 1024.1
20260906212540 27 190 4.8 14.5 0.00 0.00 0.00 31 1024.1
20260906212040 27 190 6.4 14.5 0.00 0.00 0.00 28 1024.2
20260906211556 27 190 6.4 14.5 0.00 0.00 0.00 28 1024.3
20260906211035 27 190 4.8 11.3 0.00 0.00 0.00 28 1024.3
20260906210539 28 190 3.2 11.3 0.00 0.00 0.00 28 1024.4
20260906210113 27 190 3.2 17.7 0.00 0.00 0.00 29 1024.5
20260906205540 27 190 4.8 17.7 0.00 0.00 0.00 29 1024.6
20260906205039 28 190 3.2 14.5 0.00 0.00 0.00 30 1024.6
20260906204608 28 190 1.6 14.5 0.00 0.00 0.00 29 1024.6
20260906204038 27 190 1.6 8.0 0.00 0.00 0.00 29 1024.7
20260906203539 27 190 1.6 11.3 0.00 0.00 0.00 30 1024.9
20260906203053 27 190 4.8 11.3 0.00 0.00 0.00 32 1024.9
20260906202535 27 190 4.8 11.3 0.00 0.00 0.00 31 1025.0
20260906202038 27 190 1.6 8.0 0.00 0.00 0.00 30 1025.1
20260906201556 27 190 3.2 8.0 0.00 0.00 0.00 28 1025.2
20260906201035 27 190 3.2 6.4 0.00 0.00 0.00 28 1025.2
20260906200539 27 190 1.6 6.4 0.00 0.00 0.00 26 1025.2
20260906200053 27 190 1.6 6.4 0.00 0.00 0.00 29 1025.4
20260906195538 27 190 0.0 4.8 0.00 0.00 0.00 28 1025.4
20260906195039 26 190 0.0 4.8 0.00 0.00 0.00 27 1025.5
20260906194558 26 190 0.0 4.8 0.00 0.00 0.00 31 1025.6
20260906194036 25 190 1.6 6.4 0.00 0.00 0.00 30 1025.7
20260906193535 27 190 1.6 9.7 0.00 0.00 0.00 28 1025.8
20260906193056 27 190 1.6 9.7 0.00 0.00 0.00 32 1025.8
20260906192535 27 190 3.2 8.0 0.00 0.00 0.00 26 1026.1
20260906192039 27 190 3.2 8.0 0.00 0.00 0.00 26 1026.1
20260906191603 27 190 0.0 4.8 0.00 0.00 0.00 29 1026.1
20260906191038 27 190 0.0 8.0 0.00 0.00 0.00 30 1026.2
20260906190539 26 190 1.6 8.0 0.00 0.00 0.00 26 1026.3
20260906190050 27 190 1.6 4.8 0.00 0.00 0.00 26 1026.6
20260906185535 26 0 0.0 8.0 0.00 0.00 0.00 26 1026.6
20260906185036 26 190 3.2 9.7 0.00 0.00 0.00 30 1026.7
20260906184558 26 190 1.6 9.7 0.00 0.00 0.00 27 1026.7
20260906184043 26 190 3.2 9.7 0.00 0.00 0.00 26 1026.8
20260906183538 24 190 1.6 4.8 0.00 0.00 0.00 30 1026.9
20260906183054 25 190 0.0 4.8 0.00 0.00 0.00 29 1026.9
20260906182536 25 190 0.0 6.4 0.00 0.00 0.00 37 1027.0
20260906182036 25 190 1.6 8.0 0.00 0.00 0.00 33 1027.2
20260906181554 24 190 0.0 8.0 0.00 0.00 0.00 33 1027.2
20260906181039 24 0 1.6 8.0 0.00 0.00 0.00 28 1027.6
20260906180541 23 190 0.0 4.8 0.00 0.00 0.00 28 1027.6
20260906180119 24 190 0.0 3.2 0.00 0.00 0.00 34 1027.7
20260906175538 23 190 0.0 3.2 0.00 0.00 0.00 31 1027.9
20260906175035 22 0 0.0 3.2 0.00 0.00 0.00 38 1028.0
20260906174602 22 0 0.0 3.2 0.00 0.00 0.00 35 1028.1
20260906174038 22 0 0.0 4.8 0.00 0.00 0.00 35 1028.1
20260906173539 22 0 0.0 4.8 0.00 0.00 0.00 38 1028.2
20260906173059 22 190 0.0 3.2 0.00 0.00 0.00 32 1028.4
20260906172536 22 0 0.0 6.4 0.00 0.00 0.00 32 1028.4
20260906172036 22 190 1.6 6.4 0.00 0.00 0.00 35 1028.4
20260906171550 22 0 3.2 9.7 0.00 0.00 0.00 36 1028.4
20260906171038 21 190 3.2 9.7 0.00 0.00 0.00 37 1028.4
20260906170538 21 190 1.6 4.8 0.00 0.00 0.00 39 1028.4
20260906170048 22 190 0.0 6.4 0.00 0.00 0.00 40 1028.5
20260906165538 21 0 0.0 6.4 0.00 0.00 0.00 40 1028.6
20260906165038 21 190 0.0 6.4 0.00 0.00 0.00 44 1028.6
20260906164555 20 190 0.0 3.2 0.00 0.00 0.00 44 1028.7
20260906164040 21 0 1.6 3.2 0.00 0.00 0.00 46 1028.9
20260906163538 20 0 0.0 3.2 0.00 0.00 0.00 44 1029.0
20260906163059 20 0 0.0 3.2 0.00 0.00 0.00 43 1029.1
20260906162539 19 190 0.0 3.2 0.00 0.00 0.00 49 1029.2
20260906162043 18 190 0.0 6.4 0.00 0.00 0.00 46 1029.3
20260906161558 18 190 0.0 6.4 0.00 0.00 0.00 47 1029.4
20260906161038 18 190 0.0 6.4 0.00 0.00 0.00 50 1029.4
20260906160539 18 0 0.0 4.8 0.00 0.00 0.00 48 1029.4
20260906160058 18 190 1.6 4.8 0.00 0.00 0.00 47 1029.4
20260906155538 18 0 0.0 3.2 0.00 0.00 0.00 49 1029.6
20260906155041 17 0 0.0 3.2 0.00 0.00 0.00 52 1029.6
20260906154554 17 190 0.0 3.2 0.00 0.00 0.00 50 1029.7
20260906154038 17 0 0.0 1.6 0.00 0.00 0.00 50 1029.7
20260906153538 16 0 0.0 4.8 0.00 0.00 0.00 50 1029.7
20260906153115 16 0 1.6 4.8 0.00 0.00 0.00 50 1029.9
20260906152538 16 0 0.0 3.2 0.00 0.00 0.00 53 1029.8
20260906152036 15 190 0.0 1.6 0.00 0.00 0.00 55 1029.9
20260906151602 15 0 0.0 1.6 0.00 0.00 0.00 55 1029.8
20260906151036 15 0 0.0 3.2 0.00 0.00 0.00 53 1029.9
20260906150536 15 0 0.0 3.2 0.00 0.00 0.00 54 1030.0
20260906150057 13 0 0.0 3.2 0.00 0.00 0.00 59 1030.1
20260906145539 12 0 0.0 3.2 0.00 0.00 0.00 62 1030.2
20260906145039 12 190 0.0 1.6 0.00 0.00 0.00 63 1030.2
20260906144601 12 190 0.0 1.6 0.00 0.00 0.00 63 1030.2
20260906144041 12 0 0.0 1.6 0.00 0.00 0.00 64 1030.1
20260906143539 12 190 0.0 1.6 0.00 0.00 0.00 62 1030.1
20260906143059 12 190 0.0 0.0 0.00 0.00 0.00 61 1030.2
20260906142536 12 0 0.0 0.0 0.00 0.00 0.00 59 1030.1
20260906142039 12 0 0.0 1.6 0.00 0.00 0.00 59 1030.1
20260906141554 12 0 0.0 1.6 0.00 0.00 0.00 61 1030.2
20260906141039 12 0 0.0 1.6 0.00 0.00 0.00 64 1030.0
20260906140536 11 190 0.0 1.6 0.00 0.00 0.00 65 1030.1
20260906140055 11 0 0.0 1.6 0.00 0.00 0.00 68 1030.0
20260906135535 10 0 0.0 1.6 0.00 0.00 0.00 70 1030.0
20260906135040 9 0 0.0 0.0 0.00 0.00 0.00 75 1030.0
20260906134614 7 0 0.0 0.0 0.00 0.00 0.00 79 1030.0
20260906134036 6 0 0.0 0.0 0.00 0.00 0.00 80 1030.0
20260906133537 6 0 0.0 0.0 0.00 0.00 0.00 80 1029.9
20260906133059 6 0 0.0 0.0 0.00 0.00 0.00 80 1029.9
20260906132536 5 0 0.0 0.0 0.00 0.00 0.00 82 1029.9
20260906132036 5 0 0.0 0.0 0.00 0.00 0.00 82 1029.7
20260906131556 5 0 0.0 0.0 0.00 0.00 0.00 82 1029.6
20260906131035 5 0 0.0 1.6 0.00 0.00 0.00 82 1029.6
20260906130539 5 0 0.0 1.6 0.00 0.00 0.00 82 1029.4
20260906130056 5 0 0.0 1.6 0.00 0.00 0.00 82 1029.4
20260906125536 5 0 0.0 0.0 0.00 0.00 0.00 83 1029.2
20260906125035 5 0 0.0 0.0 0.00 0.00 0.00 83 1029.2
20260906124554 5 0 0.0 0.0 0.00 0.00 0.00 84 1029.1
20260906124039 5 0 0.0 0.0 0.00 0.00 0.00 82 1029.0
20260906123537 5 0 0.0 0.0 0.00 0.00 0.00 82 1029.1
20260906123104 5 0 0.0 0.0 0.00 0.00 0.00 82 1029.0
20260906122535 5 0 0.0 0.0 0.00 0.00 0.00 82 1028.9
20260906122035 5 0 0.0 0.0 0.00 0.00 0.00 82 1029.0
20260906121553 5 0 0.0 0.0 0.00 0.00 0.00 82 1028.7
20260906121040 5 0 0.0 0.0 0.00 0.00 0.00 82 1028.7
20260906120542 5 0 0.0 0.0 0.00 0.00 0.00 82 1028.7
20260906115539 5 0 0.0 0.0 0.00 0.00 0.00 83 1028.6
20260906115039 5 0 0.0 0.0 0.00 0.00 0.00 82 1028.5
20260906114555 6 0 0.0 0.0 0.00 0.00 0.00 82 1028.7
20260906114038 6 0 0.0 0.0 0.00 0.00 0.00 81 1028.7
20260906113538 6 0 0.0 0.0 0.00 0.00 0.00 82 1028.6
20260906113059 6 0 0.0 0.0 0.00 0.00 0.00 82 1028.6
20260906112536 6 0 0.0 0.0 0.00 0.00 0.00 82 1028.6
20260906112038 6 0 0.0 0.0 0.00 0.00 0.00 81 1028.6
20260906111553 6 0 0.0 0.0 0.00 0.00 0.00 80 1028.6
20260906111039 6 0 0.0 0.0 0.00 0.00 0.00 80 1028.6
20260906110538 6 0 0.0 0.0 0.00 0.00 0.00 81 1028.5
20260906110054 6 0 0.0 0.0 0.00 0.00 0.00 81 1028.4
20260906105539 6 0 0.0 0.0 0.00 0.00 0.00 80 1028.5
20260906105041 6 0 0.0 0.0 0.00 0.00 0.00 80 1028.5
20260906104551 6 0 0.0 0.0 0.00 0.00 0.00 81 1028.4
20260906104040 7 0 0.0 0.0 0.00 0.00 0.00 81 1028.4
20260906103539 7 0 0.0 0.0 0.00 0.00 0.00 81 1028.5
20260906103107 7 0 0.0 0.0 0.00 0.00 0.00 82 1028.5
20260906102541 7 0 0.0 0.0 0.00 0.00 0.00 81 1028.4
20260906102038 7 0 0.0 0.0 0.00 0.00 0.00 81 1028.3
20260906101555 7 0 0.0 0.0 0.00 0.00 0.00 81 1028.4
20260906101038 7 0 0.0 0.0 0.00 0.00 0.00 82 1028.3
20260906100539 7 0 0.0 0.0 0.00 0.00 0.00 81 1028.3
20260906095538 7 0 0.0 0.0 0.00 0.00 0.00 81 1028.2
20260906095040 7 0 0.0 0.0 0.00 0.00 0.00 80 1028.2
20260906094555 7 0 0.0 0.0 0.00 0.00 0.00 80 1028.3
20260906094038 7 0 0.0 0.0 0.00 0.00 0.00 79 1028.2
20260906093537 8 0 0.0 0.0 0.00 0.00 0.00 78 1028.1
20260906093100 8 0 0.0 0.0 0.00 0.00 0.00 77 1028.0
20260906092540 8 0 0.0 0.0 0.00 0.00 0.00 78 1028.0
20260906092037 8 0 0.0 0.0 0.00 0.00 0.00 76 1028.1
20260906091552 8 0 0.0 0.0 0.00 0.00 0.00 76 1028.1
20260906091039 8 0 0.0 0.0 0.00 0.00 0.00 76 1027.9
20260906090537 8 0 0.0 0.0 0.00 0.00 0.00 76 1028.0
20260906090116 8 0 0.0 0.0 0.00 0.00 0.00 77 1028.0
20260906085536 8 0 0.0 0.0 0.00 0.00 0.00 76 1027.9
20260906085036 8 0 0.0 0.0 0.00 0.00 0.00 76 1027.8
20260906084558 8 0 0.0 0.0 0.00 0.00 0.00 76 1027.9
20260906084037 8 0 0.0 1.6 0.00 0.00 0.00 76 1027.9
20260906083537 8 0 0.0 1.6 0.00 0.00 0.00 77 1027.8
20260906083055 8 0 0.0 1.6 0.00 0.00 0.00 76 1027.7
20260906082537 8 190 0.0 0.0 0.00 0.00 0.00 77 1027.8
20260906082038 8 0 0.0 0.0 0.00 0.00 0.00 76 1027.7
20260906081557 8 0 0.0 0.0 0.00 0.00 0.00 77 1027.9
20260906081038 8 0 0.0 0.0 0.00 0.00 0.00 77 1027.9
20260906080538 8 0 0.0 0.0 0.00 0.00 0.00 76 1027.9
20260906080125 8 0 0.0 0.0 0.00 0.00 0.00 76 1027.9
20260906075538 8 0 0.0 0.0 0.00 0.00 0.00 75 1027.9
20260906075038 9 0 0.0 1.6 0.00 0.00 0.00 75 1027.8
20260906074608 9 0 0.0 1.6 0.00 0.00 0.00 75 1027.9
20260906074037 9 190 0.0 1.6 0.00 0.00 0.00 74 1027.9
20260906073539 10 0 0.0 1.6 0.00 0.00 0.00 74 1027.9
20260906073110 10 0 0.0 1.6 0.00 0.00 0.00 74 1027.9
20260906072537 10 190 0.0 0.0 0.00 0.00 0.00 74 1027.7
20260906072037 10 0 0.0 1.6 0.00 0.00 0.00 74 1027.7
20260906071555 10 0 0.0 1.6 0.00 0.00 0.00 73 1027.7
20260906071038 10 0 0.0 1.6 0.00 0.00 0.00 73 1027.7
20260906070538 10 0 0.0 3.2 0.00 0.00 0.00 73 1027.6
20260906070057 10 0 1.6 3.2 0.00 0.00 0.00 72 1027.6
20260906065539 11 190 0.0 3.2 0.00 0.00 0.00 72 1027.5
20260906065038 11 0 0.0 3.2 0.00 0.00 0.00 70 1027.4
20260906064554 11 190 0.0 1.6 0.00 0.00 0.00 70 1027.5
20260906064038 11 0 0.0 1.6 0.00 0.00 0.00 69 1027.6
20260906063537 12 190 0.0 1.6 0.00 0.00 0.00 69 1027.6
20260906063057 12 0 0.0 0.0 0.00 0.00 0.00 68 1027.6
20260906062538 11 0 0.0 0.0 0.00 0.00 0.00 68 1027.6
20260906062039 12 0 0.0 0.0 0.00 0.00 0.00 68 1027.5
20260906061556 12 0 0.0 1.6 0.00 0.00 0.00 67 1027.4
20260906061037 12 0 0.0 1.6 0.00 0.00 0.00 67 1027.5
20260906060537 12 190 0.0 3.2 0.00 0.00 0.00 66 1027.5
20260906060053 12 0 0.0 4.8 0.00 0.00 0.00 66 1027.5
20260906055538 12 0 1.6 4.8 0.00 0.00 0.00 65 1027.4
20260906055038 13 190 0.0 3.2 0.00 0.00 0.00 65 1027.4
20260906054553 13 190 0.0 3.2 0.00 0.00 0.00 65 1027.4
20260906054039 13 190 1.6 3.2 0.00 0.00 0.00 65 1027.4
20260906053538 12 190 0.0 3.2 0.00 0.00 0.00 65 1027.4
20260906053058 12 0 0.0 0.0 0.00 0.00 0.00 67 1027.4
20260906052540 13 0 0.0 0.0 0.00 0.00 0.00 67 1027.2
20260906052037 13 0 0.0 0.0 0.00 0.00 0.00 66 1027.2
20260906051603 13 0 0.0 0.0 0.00 0.00 0.00 65 1027.2
20260906051038 13 0 0.0 0.0 0.00 0.00 0.00 65 1027.1
20260906050537 13 0 0.0 0.0 0.00 0.00 0.00 64 1027.1
20260906050106 13 0 0.0 0.0 0.00 0.00 0.00 63 1027.0
20260906045538 14 0 0.0 0.0 0.00 0.00 0.00 60 1026.9
20260906045039 14 0 0.0 0.0 0.00 0.00 0.00 60 1026.9
20260906044559 14 0 0.0 0.0 0.00 0.00 0.00 59 1026.9
20260906044042 15 0 0.0 0.0 0.00 0.00 0.00 58 1026.9
20260906043542 15 0 0.0 0.0 0.00 0.00 0.00 59 1027.0
20260906043101 15 0 0.0 0.0 0.00 0.00 0.00 58 1027.1
20260906042538 15 0 0.0 0.0 0.00 0.00 0.00 58 1027.1
20260906042037 15 0 0.0 0.0 0.00 0.00 0.00 56 1027.0
20260906041602 15 0 0.0 0.0 0.00 0.00 0.00 57 1027.1
20260906041037 16 0 0.0 0.0 0.00 0.00 0.00 59 1026.9
20260906040537 16 0 0.0 0.0 0.00 0.00 0.00 58 1026.9
20260906040054 16 0 0.0 0.0 0.00 0.00 0.00 56 1026.8
20260906035541 17 0 0.0 0.0 0.00 0.00 0.00 53 1026.9
20260906035039 17 0 0.0 0.0 0.00 0.00 0.00 53 1026.8
20260906034608 17 0 0.0 0.0 0.00 0.00 0.00 51 1026.9
20260906034038 17 0 0.0 0.0 0.00 0.00 0.00 53 1026.7
20260906033538 17 0 0.0 0.0 0.00 0.00 0.00 54 1026.7
20260906033056 17 0 0.0 0.0 0.00 0.00 0.00 55 1026.8
20260906032539 17 0 0.0 0.0 0.00 0.00 0.00 54 1026.6
20260906032037 17 0 0.0 0.0 0.00 0.00 0.00 54 1026.5
20260906031552 17 0 0.0 0.0 0.00 0.00 0.00 52 1026.4
20260906031038 17 0 0.0 0.0 0.00 0.00 0.00 54 1026.3
20260906030538 17 0 0.0 0.0 0.00 0.00 0.00 51 1026.2
20260906030056 18 0 0.0 0.0 0.00 0.00 0.00 51 1026.1
20260906025538 18 0 0.0 0.0 0.00 0.00 0.00 50 1026.0
20260906025038 18 190 0.0 0.0 0.00 0.00 0.00 52 1026.0
20260906024556 18 0 0.0 0.0 0.00 0.00 0.00 51 1025.9
20260906024039 18 0 0.0 0.0 0.00 0.00 0.00 54 1025.8
20260906023538 18 0 0.0 0.0 0.00 0.00 0.00 52 1025.7
20260906023051 18 0 0.0 0.0 0.00 0.00 0.00 53 1025.5
20260906022538 18 0 0.0 0.0 0.00 0.00 0.00 50 1025.4
20260906022038 19 190 0.0 0.0 0.00 0.00 0.00 50 1025.5
20260906021550 20 0 0.0 0.0 0.00 0.00 0.00 49 1025.3
20260906021041 20 0 0.0 4.8 0.00 0.00 0.00 47 1025.3
20260906020539 20 0 0.0 4.8 0.00 0.00 0.00 46 1025.2
20260906020100 20 0 0.0 1.6 0.00 0.00 0.00 48 1025.2
20260906015538 21 0 0.0 0.0 0.00 0.00 0.00 45 1025.1
20260906015038 21 0 0.0 3.2 0.00 0.00 0.00 44 1025.1
20260906014554 21 0 0.0 3.2 0.00 0.00 0.00 43 1025.1
20260906014039 21 190 0.0 4.8 0.00 0.00 0.00 44 1025.0
20260906013538 22 0 0.0 9.7 0.00 0.00 0.00 42 1025.0
20260906013103 22 190 1.6 12.9 0.00 0.00 0.00 40 1024.8
20260906012537 22 190 4.8 12.9 0.00 0.00 0.00 40 1024.8
20260906012038 22 190 6.4 12.9 0.00 0.00 0.00 39 1024.8
20260906011556 23 190 4.8 12.9 0.00 0.00 0.00 39 1024.8
20260906011038 23 190 4.8 12.9 0.00 0.00 0.00 38 1024.6
20260906010538 23 190 4.8 11.3 0.00 0.00 0.00 37 1024.6
20260906010058 24 190 3.2 11.3 0.00 0.00 0.00 37 1024.6
20260906005538 25 190 3.2 11.3 0.00 0.00 0.00 35 1024.6
20260906005038 25 190 4.8 11.3 0.00 0.00 0.00 35 1024.7
20260906004603 25 190 3.2 11.3 0.00 0.00 0.00 36 1024.6
20260906004038 25 190 3.2 8.0 0.00 0.00 0.00 35 1024.6
20260906003537 25 190 4.8 16.1 0.00 0.00 0.00 34 1024.6
20260906003059 25 190 6.4 16.1 0.00 0.00 0.00 34 1024.6
20260906002537 25 190 3.2 9.7 0.00 0.00 0.00 33 1024.6
20260906002041 25 190 3.2 11.3 0.00 0.00 0.00 33 1024.5
20260906001555 25 190 3.2 11.3 0.00 0.00 0.00 33 1024.6
20260906001038 26 190 4.8 11.3 0.00 0.00 0.00 32 1024.5
20260906000540 26 190 3.2 11.3 0.00 0.00 0.00 32 1024.5
20260906000108 26 190 0.0 11.3 0.00 0.00 0.00 33 1024.5
20260905235538 26 190 1.6 11.3 0.00 0.00 0.00 31 1024.6
20260905235038 26 190 3.2 8.0 0.00 0.00 0.00 30 1024.5
20260905234608 26 190 0.0 8.0 0.00 0.00 0.00 30 1024.6
20260905234038 26 190 3.2 8.0 0.00 0.00 0.00 30 1024.6
20260905233539 26 190 3.2 8.0 0.00 0.00 0.00 29 1024.6
20260905233056 27 190 3.2 8.0 0.00 0.00 0.00 28 1024.6
20260905232536 27 190 3.2 8.0 0.00 0.00 0.00 28 1024.6
20260905232038 27 190 0.0 8.0 0.00 0.00 0.00 31 1024.5
20260905231555 27 0 3.2 14.5 0.00 0.00 0.00 31 1024.4